Location: Hinter Wallegg
(46.4011°N, 7.2360°E)
Time: 18:20:37
(UTC+00:00)

Daily predictions for brighter satellites

Satellite Brightness Start Highest point End
(mag) Time Altitude Azimuth Time Altitude Azimuth Time Altitude Azimuth
Cosmos 2084 3.3 19:25:55 10° SSW 19:29:57 73° SE 19:34:06 10° NE
Resurs 01 Rocket 2.2 19:28:49 10° SE 19:33:00 42° ENE 19:37:14 10° N
Gbstr 26 Del rocket 3.9 19:31:36 10° WNW 19:34:58 32° SW 19:38:27 10° SSE
Cosmos 1980 Rocket 4.3 19:33:27 10° NW 19:37:55 24° WSW 19:42:22 10° SSW
Cosmos 1812 4.0 19:37:37 10° NNE 19:40:53 25° ENE 19:44:02 10° SE
Cosmos 1933 3.3 19:37:11 10° N 19:41:15 87° E 19:45:15 10° S
Cosmos 1689 Rocket 3.3 19:39:03 10° N 19:41:41 42° WNW 19:44:18 10° SW
Cosmos 1782 3.0 19:39:14 10° N 19:43:11 53° ENE 19:47:04 10° SSE
Landsat 7 4.1 19:38:50 10° SE 19:43:25 51° ENE 19:48:02 10° N
MOS 1 4.4 19:41:29 10° SSE 19:47:08 85° WSW 19:52:50 10° NNW
SL-27 R/B 3.1 19:44:50 10° S 19:48:08 36° ESE 19:51:28 10° NE
Cosmos 2333 Rocket 3.2 19:46:39 10° NNW 19:51:48 34° NE 19:56:33 12° ESE
BREEZE-M DEB (TANK) 2.6 19:49:46 10° WNW 19:52:33 56° SSW 19:58:28 12° SE
Cosmos 2237 Rocket 4.4 19:50:41 10° N 19:53:16 13° NE 19:55:52 10° ENE
Cosmos 2322 Rocket 2.3 19:48:22 10° NNW 19:54:01 80° WSW 19:59:38 10° SSE
SPOT 5 4.3 19:52:45 10° ESE 19:55:46 19° ENE 19:58:58 10° NNE
Cosmos 2195 Rocket 4.4 19:49:40 10° S 19:55:47 82° E 20:01:55 10° N
IRS-1A Rocket 4.4 19:50:49 10° S 19:56:18 74° WSW 20:01:50 10° NNW
ARIANE 5 R/B 4.1 19:54:19 12° ESE 19:57:26 23° ENE 20:00:55 10° NNE
BREEZE-M R/B 4.0 19:55:23 10° SSW 19:59:51 22° SSE 20:02:42 10° E
OBJECT-B 3.4 19:57:29 10° SW 19:59:56 20° W 20:02:24 10° NW
Cosmos 923 Rocket 4.4 19:54:45 10° SSW 20:00:05 70° WNW 20:05:26 10° NNE
BREEZE-M DEB (TANK) 3.9 20:01:48 10° WNW 20:05:06 56° SSW 20:12:58 14° SE
Cosmos 2219 Rocket 3.1 20:00:51 10° NNW 20:05:59 35° NE 20:10:11 14° ESE
Resurs 1-3 4.4 20:02:39 10° S 20:06:54 50° W 20:11:12 10° NNW
Cosmos 2056 Rocket 3.5 20:05:30 10° NNW 20:10:52 86° ENE 20:15:29 13° SSE
ATLAS 5 CENTAUR R/B 3.2 20:07:00 10° NNW 20:12:02 38° NE 20:17:08 13° ESE
Spot 2 Rocket 4.0 20:14:03 17° SE 20:17:47 47° ENE 20:22:40 10° N
SPOT 1/Viking Rocket 3.6 20:14:27 14° SSE 20:18:59 73° ENE 20:24:13 10° N
USA 245 3.5 20:16:53 18° SE 20:19:51 53° ENE 20:23:17 10° N
Cosmos 1408 Rocket 3.9 20:17:00 15° SSE 20:20:18 44° E 20:24:25 10° NNE
NOSS 2-1 (E) 3.4 20:18:59 10° SW 20:22:13 60° NW 20:25:38 10° NNE
Cosmos 2026 Rocket 4.3 20:18:46 10° SSW 20:25:04 73° W 20:31:18 10° N
CZ-2C R/B 3.7 20:22:01 10° NNE 20:26:27 58° E 20:30:27 12° S
SL-16 R/B 3.6 20:22:15 10° NW 20:27:20 35° WSW 20:32:24 10° S
IGS 5A 4.2 20:23:33 10° S 20:27:35 50° W 20:31:38 10° NNW
GP-B 3.1 20:24:58 10° N 20:29:25 87° W 20:33:40 11° S
CARTOSAT-1 3.7 20:29:08 22° SE 20:31:44 58° ENE 20:35:59 10° N
Cosmos 1151 Rocket 3.5 20:27:41 10° NNW 20:32:01 59° W 20:36:06 11° S
NOSS 3-1 (C) 4.1 20:27:00 10° NW 20:34:29 89° NE 20:40:55 20° SE
Lacrosse 5 2.8 20:33:37 23° SE 20:34:41 24° SE 20:38:44 10° ENE
Okean 3 Rocket 4.0 20:32:21 10° SSW 20:36:49 66° W 20:41:22 10° N
Cosmos 2333 4.2 20:32:38 10° NNW 20:38:17 81° ENE 20:41:51 23° SSE
MetOp-B 4.4 20:36:35 14° S 20:41:16 67° WSW 20:46:38 10° NNW
ERS-2 3.8 20:37:59 10° N 20:41:20 35° WNW 20:44:40 10° SW
Meteor 1-10 Rocket 4.1 20:37:30 10° N 20:43:05 79° ENE 20:46:47 22° SSE
COSMOS 2487 2.4 20:45:40 37° SSE 20:46:38 52° ESE 20:49:57 10° NNE
Cosmos 1515 Rocket 3.5 20:44:55 10° N 20:49:21 89° E 20:51:44 27° S
COSMOS 2428 2.9 20:45:12 10° NNW 20:50:51 60° ENE 20:53:52 27° SE
USA 229 DEB 4.0 20:45:22 10° NW 20:52:41 76° NE 20:57:36 25° SE
USA 229 4.0 20:45:27 10° NW 20:52:47 76° NE 20:57:42 25° SE
COSMOS 2455 2.7 20:46:52 10° SSW 20:52:51 77° ESE 20:58:54 10° NE
Terra 2.2 20:54:31 31° SE 20:56:30 51° ENE 21:01:07 10° N
Cosmos 292 Rocket 4.2 20:52:31 10° NNW 20:57:12 57° WSW 20:59:58 24° S
Cosmos 2360 Rocket 3.2 20:55:26 10° NW 21:00:40 41° WSW 21:04:36 17° S
Cosmos 2084 Rocket 4.2 20:56:40 10° NNW 21:00:41 43° NE 21:02:26 28° E
Cosmos 1048 Rocket 4.0 20:59:49 27° S 21:02:25 55° ESE 21:07:25 10° NNE
Cosmos 972 Rocket 3.9 21:01:58 22° S 21:05:19 68° ESE 21:10:13 10° NNE
Resurs 01 Rocket 3.8 21:06:16 10° SW 21:09:40 21° W 21:13:07 10° NW
NOSS 3-1 (A) 4.1 21:05:47 10° NW 21:13:20 87° SW 21:18:16 29° SE
Cosmos 2266 Rocket 3.9 21:09:42 21° S 21:14:04 86° E 21:20:24 10° N
H-2A R/B 4.1 21:13:07 10° NNE 21:17:03 37° E 21:17:03 37° E
Cosmos 1980 4.5 21:11:50 10° NNW 21:17:12 41° NE 21:19:35 27° ESE
Gblst 52 Del rocket 4.5 21:15:55 10° WNW 21:21:54 72° SSW 21:24:54 35° SE
ERS-1 Rocket 3.1 21:20:14 33° S 21:22:29 69° WSW 21:27:32 10° NNW
Cosmos 2228 Rocket 3.0 21:21:19 10° N 21:25:46 86° E 21:26:53 51° SSE
Cosmos 2285 Rocket 4.0 21:23:58 10° NNW 21:30:16 77° WSW 21:33:03 36° S
Cosmos 2297 Rocket 3.0 21:31:26 31° ESE 21:31:26 31° ESE 21:36:21 10° NE
Cosmos 1805 Rocket 3.4 21:31:35 54° S 21:32:33 80° E 21:36:59 10° N
SPOT 5 3.2 21:31:58 34° SSW 21:33:29 50° W 21:37:53 10° NNW
ARIANE 5 R/B 3.6 21:31:52 28° SSW 21:33:40 41° W 21:37:52 10° NNW
BREEZE-M DEB (TANK) 1.9 21:29:29 10° WNW 21:34:36 85° SW 21:34:36 85° SW
Cosmos 2315 Rocket 4.0 21:28:24 10° N 21:34:47 88° W 21:37:37 36° S
NOSS 0 Rocket 3.9 21:29:17 10° NNW 21:35:34 77° ENE 21:37:53 41° SE
Cosmos 2333 Rocket 3.0 21:30:51 10° NW 21:36:11 44° WSW 21:38:33 29° SSW
Cosmos 2237 Rocket 2.6 21:33:08 10° NNW 21:38:42 54° ENE 21:40:34 38° ESE
Cosmos 2322 4.5 21:33:45 10° NW 21:39:09 44° WSW 21:41:30 29° SSW
Meteor 1-20 Rocket 4.1 21:40:21 43° S 21:42:17 75° E 21:48:01 10° NNE
Cosmos 1500 Rocket 4.5 21:40:12 24° SW 21:42:30 46° WNW 21:46:49 10° N
Cosmos 1452 Rocket 4.2 21:37:37 10° NNW 21:42:37 46° WSW 21:44:29 32° SSW
Cosmos 2227 Rocket 3.2 21:44:50 29° E 21:44:50 29° E 21:49:17 10° NE
ALOS 2 4.4 21:45:45 19° ENE 21:46:23 19° ENE 21:49:30 10° NNE
Cosmos 2219 Rocket 3.0 21:44:47 10° NW 21:50:00 41° WSW 21:51:54 31° SSW
USA 40 PKM 4.4 21:46:49 10° NW 21:50:26 68° NE 21:50:40 65° ENE
Sich 1 3.0 21:53:27 65° SW 21:54:02 79° W 21:58:21 10° N
ATLAS 5 CENTAUR R/B 2.7 21:51:23 10° NW 21:56:54 53° WSW 21:58:38 41° S
Cosmos 1515 3.7 21:53:54 10° NNW 21:57:27 73° NW 21:57:27 73° NW
Cosmos 1331 Rocket 4.0 21:53:23 10° NNW 21:58:35 70° WSW 21:59:36 55° SSW
Cosmos 1110 Rocket 4.2 21:54:45 10° NNW 22:00:00 62° WSW 22:01:08 49° SSW
Nadezhda 1 Rocket 4.5 21:58:53 10° N 22:05:04 48° ENE 22:06:40 40° ESE
Cosmos 1633 Rocket 3.0 22:10:51 71° ENE 22:10:51 71° ENE 22:14:57 10° NNE
SL-16 R/B 3.2 22:05:52 10° NNW 22:11:07 37° NE 22:12:56 30° E
NOSS 2-2 (C) 4.4 22:07:06 10° NW 22:12:25 86° NE 22:14:24 49° SE
Cosmos 1470 Rocket 4.3 22:14:08 41° ENE 22:14:08 41° ENE 22:17:34 10° NNE
Cosmos 1666 4.1 22:15:50 31° NE 22:15:50 31° NE 22:18:16 10° NNE
Lacrosse 5 2.0 22:12:21 11° WSW 22:17:14 74° NW 22:22:20 10° NE
Cosmos 1666 Rocket 3.6 22:21:09 70° W 22:21:18 71° W 22:25:46 10° N
SL-08 ROCKET BODY 4.3 22:21:32 54° S 22:23:04 90° SW 22:29:18 10° N
Cosmos 1340 Rocket 4.2 22:28:39 30° NE 22:28:39 30° NE 22:31:06 10° NNE
Terra 3.7 22:33:24 19° WSW 22:34:32 20° W 22:38:03 10° NW
COSMOS 2428 4.2 22:30:18 10° NW 22:34:39 23° W 22:35:52 21° WSW
CZ-4C R/B 3.5 22:29:38 10° NW 22:36:31 53° NE 22:41:11 26° ESE
COBE Rocket 3.9 22:36:50 63° WSW 22:36:53 63° W 22:41:37 10° NNW
Timation 2 Rocket 3.9 22:39:27 59° SE 22:39:46 60° ESE 22:45:51 10° NE
Meteor 2-4 Rocket 3.7 22:34:00 10° NNW 22:39:56 85° W 22:40:46 67° S
CZ-3B R/B 2.7 22:33:45 10° WNW 22:39:48 49° W 22:39:48 49° W
Cosmos 1992 Rocket 4.1 22:37:40 10° NNW 22:42:53 65° ENE 22:43:15 62° E
Cosmos 2242 Rocket 4.2 22:40:41 10° N 22:44:34 49° NE 22:44:34 49° NE
Cosmos 1862 Rocket 4.1 22:41:29 10° NNW 22:45:19 51° WNW 22:45:19 51° WNW
USA 267 3.3 22:41:34 10° ENE 22:47:58 54° SE 22:48:10 54° SE
Cosmos 2219 3.2 22:48:17 62° SW 22:49:17 83° WNW 22:55:05 10° NNE
Meteor 1-5 Rocket 4.2 22:49:37 69° S 22:50:23 90° E 22:56:22 10° N
Spot 4 4.0 22:52:09 62° W 22:52:09 62° W 22:56:53 10° NNW
Cosmos 2082 3.8 23:01:12 61° ESE 23:01:12 61° ESE 23:06:46 10° NNE
Cosmos 1703 Rocket 3.9 22:57:35 10° N 23:01:20 63° NNE 23:01:20 63° NNE
Cosmos 909 Rocket 4.2 23:02:47 51° SSW 23:04:43 89° ESE 23:12:38 10° NE
Cosmos 1378 4.4 23:01:32 10° N 23:03:58 39° N 23:03:58 39° N
Meteor 1-11 Rocket 3.7 23:05:20 61° E 23:05:23 61° E 23:10:51 10° NNE
Okean 1-7 3.5 23:06:05 10° N 23:09:33 58° NNW 23:09:33 58° NNW
Cosmos 2181 Rocket 4.2 23:05:32 10° N 23:11:43 57° ENE 23:12:46 50° ESE
Cosmos 2297 Rocket 3.0 23:13:13 32° WSW 23:15:17 45° NW 23:20:45 10° NNE
Meteor 2-17 Rocket 4.4 23:15:38 61° SW 23:16:34 71° W 23:22:38 10° N
Nimbus 7 Rocket 4.3 23:12:22 10° NNE 23:18:22 74° ESE 23:18:52 70° SE
Meteor 1-23 Rocket 4.4 23:15:14 10° N 23:20:56 60° ENE 23:21:35 56° ESE
USA 234 3.5 23:18:04 25° ESE 23:22:08 68° NNE 23:28:39 10° NW
ALOS 2 3.4 23:23:09 44° WNW 23:23:09 44° WNW 23:26:39 10° NNW
Cosmos 2237 Rocket 3.5 23:17:48 10° NW 23:22:23 26° WSW 23:22:23 26° WSW
Cosmos 614 Rocket 4.1 23:23:41 63° E 23:23:41 63° E 23:28:29 10° NNE
Cosmos 1461 3.6 23:27:18 54° NE 23:27:18 54° NE 23:30:44 10° NE
Cosmos 1709 Rocket 3.9 23:26:19 65° SSW 23:27:19 81° W 23:33:45 10° N
Cosmos 2227 Rocket 2.9 23:26:36 37° W 23:28:16 47° WNW 23:33:45 10° NNE
Meteor 1-13 Rocket 4.2 23:22:53 10° NNW 23:28:36 71° W 23:28:50 70° WSW
SL-24 R/B - RUBIN 2 4.5 23:27:11 10° NNW 23:32:07 47° NE 23:32:45 44° ENE
Cosmos 2263 Rocket 2.9 23:33:28 41° E 23:33:28 41° E 23:38:27 10° NE
Cosmos 2344 4.1 23:34:40 38° SE 23:35:17 38° ESE 23:42:10 10° NE
Cosmos 1536 3.8 23:40:44 46° NNW 23:40:44 46° NNW 23:43:45 10° N
Cosmos 1603 4.5 23:34:28 10° NNW 23:39:54 46° ENE 23:41:32 36° E
PSLV R/B 4.1 23:38:23 10° NNE 23:42:34 61° ENE 23:42:34 61° ENE
Cosmos 1869 Rocket 4.0 23:47:06 58° NNW 23:47:06 58° NNW 23:50:55 10° N
Okean 3 4.3 23:42:34 10° NNW 23:45:46 45° NW 23:45:46 45° NW
ASTEX 1 4.1 23:46:47 42° E 23:47:02 43° ENE 23:51:41 10° N
Cosmos 44 3.7 23:47:01 10° NW 23:51:25 57° WNW 23:51:25 57° WNW
Thor Agena Rocket 3.4 23:47:35 10° NNE 23:52:34 86° NE 23:52:34 86° NE
